Total_Precipitation_Accumulation
1.59 1.82 2.01 2.23 2.46 2.63 2.77 2.98 3.21 3.49 3.69 4.03 4.35 4.55 4.69 4.86 4.90 4.87 4.91 4.92 4.94 5.06 5.08 4.88 4.83 4.73 4.60 4.39 4.30 4.14 3.93 3.68 3.66 3.54 3.10 2.52 2.17 2.11 2.03 2.07 2.28 2.30 2.18
1.58 1.94 2.27 2.70 2.94 3.03 3.08 3.28 3.58 3.85 4.00 4.38 4.87 5.27 5.42 5.51 5.54 5.52 5.64 5.71 5.75 5.90 5.93 5.87 5.66 5.48 5.19 4.70 4.33 4.16 3.93 3.58 3.68 3.70 3.62 2.94 2.46 2.01 1.65 1.75 1.82 1.91 2.07
1.83 2.07 2.46 2.76 2.91 3.00 3.12 3.29 3.73 4.13 4.54 5.02 5.57 5.98 6.18 6.21 6.10 5.83 5.92 6.04 5.95 6.02 6.16 6.11 5.90 5.59 5.05 4.49 4.30 4.23 4.07 3.84 3.77 3.66 3.80 3.28 2.75 2.33 1.86 1.62 1.54 1.65 1.75
1.79 2.08 2.32 2.61 2.76 2.89 3.12 3.33 3.71 4.33 4.79 5.14 5.77 6.36 6.62 6.81 6.91 6.69 6.38 6.16 5.92 5.80 5.73 5.56 5.14 4.76 4.41 4.12 3.98 4.00 3.87 3.85 3.68 3.60 3.31 3.07 2.79 2.53 2.13 1.73 1.52 1.55 1.57
1.59 1.92 2.07 2.34 2.67 2.77 2.87 3.12 3.66 4.22 4.87 5.47 5.99 6.53 6.96 7.18 7.13 6.71 6.28 5.77 5.40 4.98 4.60 4.28 4.06 3.98 3.78 3.57 3.44 3.42 3.32 3.16 3.07 3.08 3.05 2.99 2.75 2.42 2.19 1.91 1.69 1.67 1.54
1.43 1.58 1.73 1.95 2.31 2.42 2.63 2.95 3.39 4.08 4.73 5.30 5.87 6.33 6.72 6.76 6.44 5.90 5.39 5.05 4.68 4.21 3.72 3.46 3.25 3.13 2.96 2.76 2.64 2.61 2.62 2.70 2.74 2.79 2.79 2.75 2.71 2.55 2.47 2.26 2.00 1.87 1.78
1.30 1.48 1.57 1.73 1.96 2.13 2.40 2.76 3.29 3.91 4.31 4.78 5.27 5.59 5.80 5.86 5.77 5.42 4.98 4.64 4.23 3.80 3.33 2.90 2.68 2.45 2.25 2.14 2.12 2.09 2.09 2.19 2.31 2.42 2.47 2.46 2.40 2.37 2.44 2.50 2.26 2.02 1.88
1.40 1.60 1.72 1.83 1.96 2.09 2.26 2.61 3.04 3.48 3.70 3.94 4.33 4.61 4.73 4.77 4.64 4.39 4.04 3.74 3.44 3.18 2.87 2.44 2.08 1.86 1.73 1.63 1.70 1.73 1.75 1.81 1.90 1.98 2.15 2.16 2.10 2.20 2.30 2.39 2.47 2.35 2.04
1.39 1.58 1.73 1.84 1.93 1.96 2.12 2.28 2.55 2.80 3.02 3.20 3.40 3.53 3.54 3.45 3.35 3.15 2.90 2.68 2.50 2.25 2.10 1.90 1.69 1.57 1.52 1.52 1.55 1.54 1.52 1.60 1.69 1.75 1.86 1.96 1.96 2.02 2.11 2.24 2.36 2.43 2.27
1.39 1.54 1.60 1.67 1.71 1.66 1.75 1.86 2.08 2.23 2.38 2.49 2.54 2.46 2.46 2.40 2.27 2.10 2.01 1.87 1.68 1.55 1.53 1.48 1.48 1.42 1.35 1.40 1.46 1.41 1.39 1.50 1.52 1.51 1.59 1.68 1.75 1.86 1.95 2.08 2.17 2.24 2.22
1.30 1.34 1.38 1.41 1.44 1.37 1.37 1.47 1.64 1.84 1.95 1.95 1.98 1.96 1.87 1.70 1.60 1.50 1.45 1.38 1.29 1.27 1.27 1.28 1.29 1.28 1.27 1.28 1.29 1.26 1.27 1.33 1.46 1.55 1.59 1.63 1.67 1.75 1.76 1.79 1.84 1.97 2.09
1.29 1.22 1.20 1.20 1.21 1.16 1.14 1.21 1.28 1.37 1.42 1.48 1.50 1.51 1.43 1.32 1.27 1.22 1.18 1.19 1.15 1.12 1.16 1.17 1.17 1.22 1.28 1.31 1.25 1.16 1.14 1.23 1.34 1.43 1.50 1.49 1.46 1.52 1.62 1.68 1.67 1.72 1.83
1.35 1.30 1.21 1.14 1.17 1.26 1.24 1.11 1.12 1.17 1.17 1.21 1.22 1.22 1.25 1.22 1.19 1.20 1.21 1.19 1.14 1.11 1.08 1.04 1.08 1.16 1.22 1.23 1.20 1.14 1.12 1.13 1.20 1.24 1.25 1.27 1.30 1.28 1.32 1.38 1.44 1.46 1.49
1.32 1.36 1.39 1.34 1.25 1.26 1.38 1.24 1.10 1.09 1.16 1.15 1.12 1.05 1.03 1.08 1.11 1.12 1.13 1.09 1.05 1.07 1.09 1.07 1.03 1.03 0.99 0.93 0.91 0.91 0.95 0.95 0.95 0.97 0.99 1.06 1.16 1.18 1.21 1.18 1.23 1.26 1.37
1.47 1.44 1.39 1.38 1.31 1.25 1.29 1.27 1.20 1.12 1.30 1.27 1.23 1.13 1.03 1.05 1.10 1.08 1.04 0.99 0.95 0.90 0.91 0.92 0.87 0.80 0.69 0.61 0.61 0.66 0.70 0.74 0.75 0.77 0.75 0.77 0.91 1.01 0.99 0.92 1.03 1.16 1.31
1.65 1.62 1.54 1.52 1.51 1.41 1.38 1.32 1.30 1.25 1.33 1.39 1.44 1.45 1.34 1.28 1.28 1.19 1.05 1.03 1.02 0.93 0.84 0.79 0.77 0.70 0.54 0.53 0.50 0.58 0.68 0.75 0.74 0.76 0.76 0.69 0.73 0.77 0.75 0.74 0.87 1.06 1.10
1.90 1.87 1.81 1.74 1.73 1.69 1.60 1.51 1.43 1.39 1.40 1.45 1.48 1.46 1.43 1.41 1.38 1.22 1.08 1.08 1.05 1.02 0.98 0.87 0.81 0.77 0.69 0.56 0.48 0.52 0.66 0.76 0.77 0.76 0.74 0.64 0.60 0.67 0.69 0.70 0.74 0.82 0.83
1.84 1.84 1.87 1.83 1.82 1.71 1.62 1.55 1.48 1.46 1.49 1.49 1.48 1.43 1.33 1.32 1.25 1.16 1.13 1.09 1.03 1.01 0.96 0.90 0.82 0.74 0.58 0.43 0.38 0.41 0.54 0.70 0.75 0.73 0.72 0.73 0.69 0.65 0.66 0.65 0.69 0.78 0.83
1.96 1.91 1.86 1.76 1.71 1.67 1.59 1.52 1.51 1.51 1.51 1.48 1.38 1.30 1.21 1.19 1.11 1.09 1.03 0.96 0.91 0.90 0.85 0.76 0.71 0.69 0.56 0.37 0.31 0.35 0.52 0.69 0.69 0.65 0.59 0.62 0.65 0.65 0.63 0.67 0.80 0.87 0.92
1.81 1.69 1.54 1.44 1.49 1.53 1.50 1.47 1.45 1.44 1.43 1.22 1.04 0.99 1.01 1.00 0.96 0.91 0.86 0.82 0.81 0.80 0.72 0.63 0.66 0.67 0.62 0.47 0.39 0.41 0.52 0.64 0.63 0.63 0.60 0.55 0.55 0.56 0.57 0.67 0.81 0.90 0.90
1.32 1.24 1.18 1.24 1.32 1.35 1.29 1.29 1.23 1.23 1.19 1.08 0.94 0.91 0.89 0.83 0.79 0.79 0.79 0.76 0.72 0.75 0.74 0.72 0.67 0.61 0.54 0.43 0.37 0.38 0.43 0.55 0.59 0.60 0.63 0.58 0.48 0.45 0.49 0.61 0.68 0.75 0.74
0.98 0.93 0.96 1.03 1.08 1.04 1.05 1.13 1.13 1.05 0.99 1.02 0.95 0.90 0.81 0.70 0.69 0.81 0.80 0.77 0.78 0.80 0.77 0.74 0.68 0.55 0.47 0.38 0.32 0.32 0.37 0.45 0.57 0.66 0.66 0.58 0.48 0.44 0.46 0.54 0.61 0.63 0.73
0.75 0.78 0.79 0.84 0.94 0.97 0.99 1.04 1.03 0.93 0.93 1.00 0.98 0.86 0.73 0.75 0.74 0.80 0.79 0.74 0.73 0.68 0.62 0.60 0.60 0.54 0.46 0.38 0.32 0.34 0.39 0.45 0.51 0.58 0.55 0.50 0.50 0.49 0.59 0.61 0.62 0.72 0.94
0.61 0.68 0.72 0.72 0.80 0.83 0.86 0.92 0.85 0.84 0.99 1.10 1.04 0.89 0.78 0.73 0.70 0.68 0.62 0.58 0.59 0.57 0.54 0.52 0.51 0.48 0.47 0.43 0.40 0.42 0.41 0.43 0.47 0.51 0.53 0.57 0.61 0.64 0.72 0.81 0.91 0.95 1.01
0.64 0.67 0.71 0.70 0.66 0.67 0.73 0.70 0.71 0.84 1.08 1.06 0.95 0.83 0.69 0.63 0.61 0.54 0.47 0.43 0.41 0.39 0.40 0.39 0.37 0.42 0.42 0.37 0.37 0.37 0.37 0.38 0.38 0.41 0.58 0.80 0.85 0.92 0.98 1.02 1.06 1.11 1.05
0.57 0.67 0.66 0.59 0.60 0.66 0.68 0.63 0.63 0.73 0.94 0.97 0.79 0.66 0.56 0.49 0.42 0.38 0.38 0.31 0.26 0.24 0.22 0.22 0.23 0.24 0.25 0.23 0.24 0.27 0.30 0.33 0.35 0.42 0.68 0.80 0.85 0.93 0.96 0.96 0.99 1.06 1.09